Member area
Imprimable
Wissant, 09-10/09/2017, BEL - Trail de la Côte d'Opale
List of reports > 21km - Result
Search: Page: [1]
115 Entries
 
Complains are not accepted anymore. Results are final.
PlaceNrLicenceNameAgeNATTeamTimeTkmMoy.ScrCity
1.4958413605PLANCHET Emmanuel54FRATEMPLEUVE1:34:464:31 13.3010
2.4193541063REGHEM Didier55FRAVAFA1:39:404:45 12.6419
3.4417DESCHAMPS Philippe50FRA1:40:384:48 12.5220
4.5065HUCHIN Stéphane50FRA1:44:014:58 12.1234
5.4825DUPUIS Didier52FRA1:46:065:04 11.8841
6.4369VANDAMME Stéphane51FRA1:46:265:05 11.8442
7.52231907659BLED Nicolas53FRASOC ATHLETISME1:46:415:05 11.8146
8.4377ESTORGUE Jean Luc52FRAASUD1:46:455:05 11.8047
9.4920BAQUET Dany51BEL1:47:275:07 11.7352
10.5206DENZLER Romain54FRA1:47:395:08 11.7154
11.4788VANHAEBOST Georges55BEL1:51:495:20 11.2782
12.4496SPRIET Arnaud51FRA1:53:085:24 11.1493
13.48031565067NICOD Philippe54FRAARTOIS ATHLÉTISME1:54:005:26 11.0599
14.4501VIGLINO Daniel53BELJCPMF FLV1:54:215:27 11.02105
15.4991DELPLACE Jean Noël51FRA1:56:545:34 10.78127
16.4368CONSTANT Olivier53FRA1:57:255:36 10.73134
17.4833BAUDOUIN Jean Marc51FRA1:58:525:40 10.60152
18.5064THIEBAUX Serge52FRATHIERVILLE1:59:035:41 10.59153
19.4671PINDRAY Didier59FRA1:59:215:41 10.56155
20.4419MOLINA Francis51FRAXTREM CHALLENGES2:01:525:49 10.34192
21.4118MONTANARI Eric50FRA2:02:115:50 10.31196
22.4799SOBCZAK Hervé51FRA2:04:025:55 10.16230
23.4262SIS Christian56FRAFABULONS TEAM2:04:235:56 10.13236
24.5137FOUTERET Philippe51FRA2:07:076:04 9.91275
25.4951CHRETIEN Jean Michel51FRA2:07:456:05 9.86289
26.4329WAUTHIER Philippe50FRA2:07:466:06 9.86290
27.4518LEMIERE Joel50FRA2:08:106:07 9.83297
28.4040PETIT Philippe53FRA2:10:256:13 9.66327
29.4443DENAGTERGAEL Thierry51BEL2:10:556:15 9.62329
30.4710BIREMBAUT Denis52FRA2:11:556:17 9.55346
31.2941CARACINI Marcello55ITAJOG'IN ATTITUDE2:12:066:18 9.54349
32.4387MAURY Frederic51FRA2:12:196:19 9.52351
33.4246BOULOGNE Patrick59FRA2:12:216:19 9.52352
34.48041263709DELIERS Patrice50FRAARTOIS ATHLETISME2:12:506:20 9.49360
35.4475SUPIOT Philippe54FRACOURIR À BAISIEUX2:14:346:25 9.36379
36.4146GALLETTI Andrea55FRA2:14:356:25 9.36381
37.4400HOLARD Jean-Luc54FRA2:14:426:25 9.36383
38.4399ANTUNES Philippe52FRA2:15:116:27 9.32396
39.5017JANKIEWICZ Stanislas55FRA2:15:186:27 9.31398
40.4977DANHIER Christophe50BELLES POTOS ROSES2:16:076:29 9.26415
41.4636DEWINTRE Lionel52FRACEGEDIM2:16:536:32 9.21436
42.4956GUIOT Daniel58BEL2:17:106:32 9.19439
43.4950DEVASSINE Patrick50FRA2:17:246:33 9.17442
44.4531LEFEVRE Philippe50FRA2:17:326:33 9.16444
45.4158GOUTHIER Guy54BEL2:17:386:34 9.15445
46.4249VEROUGSTRAETE Damien51BEL2:17:456:34 9.15447
47.4604VANDOORNE Bernard57FRA2:18:116:35 9.12451
48.4476RAZEMON Stéphane55FRA2:18:476:37 9.08462
49.4649DANEL Laurent57FRA2:19:486:40 9.01477
50.4548FOURDIN Régis55FRA2:19:596:40 9.00479
51.5183VARLET Jean Pierre57FRACOURIR À BERSEE2:21:316:45 8.90508
52.4289NOEZ Hubert56FRAFAB'ULOUS TEAM2:22:156:47 8.86523
53.4943TALON Jean55FRATRIATHLON CLUB BOULONNAIS2:22:516:49 8.82532
54.3338BODART Christian53FRA2:23:496:51 8.76552
55.4795BAHEUX Eric54FRATEAM HABITAT 62/592:24:046:52 8.75556
56.5007CAZIER Philippe55FRA2:24:146:53 8.74557
57.4734NATANNI Christophe51FRA2:25:006:55 8.69568
58.4805BENARD Jean Marc56FRAARTOIS ATHLETISME2:25:016:55 8.69569
59.5200VERDIN Thierry52FRA2:25:056:55 8.69572
60.4944DUSAUTOIR Olivier53FRA2:25:426:57 8.65586
61.4301CAROLUS Michaël50FRA2:25:516:57 8.64593
62.4907VELGHE Marc55BEL2:26:086:58 8.62599
63.4315RYSSEN Jan-Francois55FRA2:26:366:59 8.60611
64.4157ROSA Stephane51FRATL592:28:047:04 8.51630
65.4718GAVOIS Patrick50FRACEGEDIM2:29:307:08 8.43654
66.4616OTTEVAERE Christophe50BEL2:29:507:09 8.41658
67.4597CORNU Pierre-Jean50BEL2:29:517:09 8.41659
68.4725POULAIN Frederic50FRA2:31:007:12 8.35669
69.4721VAN GEYTE Ludwig59BELAC DENDERLAND2:31:217:13 8.33675
70.4215DOBELLE Olivier52FRA2:31:477:14 8.30681
71.5172LANNOYE Bruno50FRA2:32:057:15 8.29685
72.5146FAUCON Patrick55FRA2:32:137:15 8.28687
73.4123LACROIX Eric50FRA2:32:527:17 8.24699
74.41271614785BAJUS Hugues52FRA2:33:537:20 8.19710
75.5005DEVAUX Eric55FRA2:34:437:23 8.14728
76.5021LE SUAVÉ Patrick59FRA2:35:287:25 8.11745
77.4784GRAVER Rudy51BEL2:35:427:25 8.09751
78.4481WACLAWSKI Eddie59FRAJOGGING CLUB LAPUGNOY2:35:517:26 8.09752
79.2425HAU Laurent52FRAFOREST RUNNING 592:35:517:26 8.08753
80.5123DUFAY Pascal55BELJCBLANDAIN2:36:167:27 8.06760
81.4681HURON Patrice52FRABEAUMONT TRIATHLON2:36:187:27 8.06762
82.4625MOÏSE Patrick57BELRC NAMUR2:36:347:28 8.05768
83.4771GOBERT Gilles59FRA2:36:447:28 8.04772
84.4789BOUTLEUX Francis58FRA2:36:517:29 8.03773
85.5124DOUILLET Ronald53BEL2:38:087:32 7.97782
86.4714GOUBERT Jozef56BEL2:38:287:33 7.95790
87.4169VANBAELINGHEM Stephane51FRAADEO / LEROY MERLIN2:38:397:34 7.94795
88.42131092322TELLIER Laurent53FRARUN POUR TOUS2:39:167:36 7.91802
89.4372DE JONG Tom50NLD2:40:577:40 7.83836
90.4596BONVARLET Pascale54FRA2:42:427:45 7.74856
91.4355CHANTREAU Thierry56FRA2:44:287:50 7.66878
92.4909BERTAUX Jean-Luc52FRA2:44:537:52 7.64885
93.4617WABLE Laurent55FRA2:45:027:52 7.64887
94.4209BOUCHET Maurice52FRAUSL JOGGING2:45:417:54 7.61903
95.5171GRARDEL Bruno57FRAUSLEFFRINCKOUCKE JOGGING2:45:427:54 7.60906
96.4168DERAM Christophe50FRAUSL JOGGING2:45:437:54 7.60908
97.4549BUTRUILLE Olivier54FRA2:45:537:54 7.60910
98.4277MICHAUX Stanislas52FRA2:45:557:55 7.59911
99.42311659862DUCROTOY Gerard53FRACAO2:45:557:55 7.59912
100.4404DEFOORT Pascal50FRASEC BOIS2:45:577:55 7.59916
101.5111518164CAILLERET Christophe51FRAAS ISSOU2:46:197:56 7.58923
102.4802DURIEUX Andre53FRA2:46:207:56 7.58924
103.4892JOVENEAU Bruno53BELJCBLANDAIN2:46:397:57 7.56926
104.4885DESTREZ Christophe51FRA2:46:537:57 7.55927
105.4601DEBAUCHERON Thierry52BEL2:47:217:59 7.53933
106.4487DELRUE Benoit52BEL2:49:248:04 7.44951
107.5107HONVAULT Alain54FRA2:51:488:11 7.33986
108.4489DUBOIS Vincent51BEL2:52:038:12 7.32990
109.5060DUVAL Jean Louis59FRACECO ESCRIME2:56:208:24 7.151023
110.4896PETIT Frédéric56FRA2:56:408:25 7.131027
111.4354VANTORRE Philippe56FRACOURIR À BERSEE3:02:218:41 6.911052
112.4881SERLIPPENS Francis56FRAJCPMF LESSINES3:07:528:57 6.711063
113.4542STASSE Jean-Pierre56BEL3:09:069:01 6.661066
114.4607VANDERHAEGEN Hervé55FRA3:22:409:40 6.221083
115.4407MEKERKE François56FRA3:35:5010:17 5.841086
DNF: did not finish; DSQ: disqualified; Speed in km/h
Page: [1]